SCP
0 0 0 0 0 0 0 0 0 0 0 0 0 0 0 0 0 0 0 0 0 0 0 0 0 0 0 0 0 0 0 0 0 0 0 0 0 0 0 0 0 0 0 0 0 0 0 0 0
0 0 0 0 0 0 0 0 0 0 0 0 0 0 0 0 0 0 0 0 0 0 0 0 0 0 0 0 0 0 0 0 0 0 0 0 0 0 0 0 0 0 0 0 0 0 0 0 0
0 0 0 0 0 0 0 0 0 0 0 0 0 0 0 0 0 0 0 0 0 0 0 0 0 0 0 0 0 0 0 0 0 0 0 0 0 0 0 0 0 0 0 0 0 0 0 0 0
0 0 0 0 0 0 0 0 0 0 0 0 0 0 0 0 0 0 0 0 0 0 0 0 0 0 0 0 0 0 0 0 0 0 0 0 0 0 0 0 0 0 0 0 0 0 0 0 0
0 0 0 0 0 0 0 0 0 0 0 0 0 0 0 0 0 0 0 0 0 0 0 0 0 0 0 0 0 0 0 0 0 0 0 0 0 0 0 0 0 0 0 0 0 0 0 0 0
0 0 0 0 0 0 0 0 0 0 0 0 0 0 0 0 0 0 0 0 0 0 0 0 0 0 0 0 0 0 0 0 0 0 0 0 0 0 0 0 0 0 0 0 0 0 0 0 0
0 0 0 0 0 0 0 0 0 0 0 0 0 0 0 0 0 0 0 0 0 0 0 0 0 0 0 0 0 0 0 0 0 0 0 0 0 0 0 0 0 0 0 0 0 0 0 0 0
0 0 0 0 0 0 0 0 0 0 0 0 0 0 0 0 0 0 0 0 0 0 0 0 0 0 0 0 0 0 0 0 0 0 0 0 0 0 0 0 0 0 0 0 0 0 0 0 0
0 0 0 0 0 0 0 0 0 0 0 0 0 0 0 0 0 0 0 0 0 0 0 0 0 0 0 0 0 0 0 0 0 0 0 0 0 0 0 0 0 0 0 0 0 0 0 0 0
0 0 0 0 0 0 0 0 0 0 0 0 0 0 0 0 0 0 0 0 0 0 0 0 0 0 0 0 0 0 0 0 0 0 0 0 0 0 0 0 0 0 0 0 0 0 0 0 0
0 0 0 0 0 0 0 0 0 0 0 0 0 0 0 0 0 0 0 0 0 0 0 0 0 0 0 0 0 0 0 0 0 0 0 0 0 0 0 0 0 0 0 0 0 0 0 0 0
0 0 0 0 0 0 0 0 0 0 0 0 0 0 0 0 0 0 0 0 0 0 0 0 0 0 0 0 0 0 0 0 0 0 0 0 0 0 0 0 0 0 0 0 0 0 0 0 0
0 0 0 0 0 0 0 0 0 0 0 0 0 0 0 0 0 0 0 0 0 0 0 0 0 0 0 0 0 0 0 0 0 0 0 0 0 0 0 0 0 0 0 0 0 0 0 0 0
0 0 0 0 0 0 0 0 0 0 0 0 0 0 0 0 0 0 0 0 0 0 0 0 0 0 0 0 0 0 0 0 0 0 0 0 0 0 0 0 -0 -0 0 0 0 0 0 0 0
0 0 0 0 0 0 0 0 0 0 0 0 0 0 0 0 0 0 0 0 0 0 0 0 0 0 0 0 0 0 0 0 0 0 0 0 0 0 0 0 -0 -0 0 0 0 0 0 0 0
0 0 0 0 0 0 0 0 0 0 0 0 0 0 0 0 0 0 0 0 0 0 0 0 0 0 0 0 0 0 0 0 0 0 0 0 0 0 0 0 0 0 0 0 0 0 0 0 0
0 0 0 0 0 0 0 0 0 0 0 0 0 0 0 0 0 0 0 0 0 0 0 0 0 0 0 0 0 0 0 0 0 0 0 0 0 0 0 0 0 0 0 0 0 0 0 0 0
0 0 0 0 0 0 0 0 0 0 0 0 0 0 0 0 0 0 0 0 0 0 0 0 0 0 0 0 0 0 0 0 0 0 0 0 0 0 0 0 0 0 0 0 0 0 0 0 0
0 0 0 0 0 0 0 0 0 0 0 0 0 0 0 0 0 0 0 0 0 0 0 0 0 0 0 0 0 0 0 0 0 0 0 0 0 0 0 0 0 0 0 0 0 0 0 0 0
0 0 0 0 0 0 0 0 0 0 0 0 0 0 0 0 0 0 0 0 0 0 0 0 0 0 0 0 0 0 0 0 0 0 0 0 0 0 0 0 0 0 0 0 0 0 0 0 0
0 0 0 0 0 0 0 0 0 0 0 0 0 0 0 0 0 0 0 0 0 0 0 0 0 0 0 0 0 0 0 0 0 0 0 0 0 0 0 0 0 0 0 0 0 0 0 0 0
0 0 0 0 0 0 0 0 0 0 0 0 0 0 0 0 0 0 0 0 0 0 0 0 0 0 0 0 0 0 0 0 0 0 0 0 0 0 0 0 0 0 0 0 0 0 0 0 0
0 0 0 0 0 0 0 0 0 0 0 0 0 0 0 0 0 0 0 0 0 0 0 0 0 0 0 0 0 0 0 0 0 0 0 0 0 0 0 0 0 0 0 0 0 0 0 0 0
0 0 0 0 0 0 0 0 0 0 0 0 0 0 0 0 0 0 0 0 0 0 0 0 0 0 0 0 0 0 0 0 0 0 0 0 0 0 0 0 0 0 0 0 0 0 0 0 0
0 0 0 0 0 0 0 0 0 0 0 0 0 0 0 0 0 0 0 0 0 0 0 0 0 0 0 0 0 0 0 0 0 0 0 0 0 0 0 0 0 0 0 0 0 0 0 0 0
0 0 0 0 0 0 0 0 0 0 0 0 0 0 0 0 0 0 0 0 0 0 0 0 0 0 0 0 0 0 0 0 0 0 0 0 0 0 0 0 0 0 0 0 0 0 0 0 0
0 0 0 0 0 0 0 0 0 0 0 0 0 0 0 0 0 0 0 0 0 0 0 0 0 0 0 0 0 0 0 0 0 0 0 0 0 0 0 0 0 0 0 0 0 0 0 0 0
0 0 0 0 0 0 0 0 0 0 0 0 0 0 0 0 0 0 0 0 0 0 0 0 0 0 0 0 0 0 0 0 0 0 0 0 0 0 0 0 0 0 0 0 0 0 0 0 0
0 0 0 0 0 0 0 0 0 0 0 0 0 0 0 0 0 0 0 0 0 0 0 0 0 0 0 0 0 0 0 0 0 0 0 0 0 0 0 0 0 0 0 0 0 0 0 0 0
0 0 0 0 0 0 0 0 0 0 0 0 0 0 0 0 0 0 0 0 0 0 0 0 0 0 0 0 0 0 0 0 0 0 0 0 0 0 0 0 0 0 0 0 0 0 0 0 0
Wind_Speed
3 2 2 3 5 5 3 1 1 2 4 5 8 9 8 6 4 5 2 5 6 5 5 6 9 9 9 10 10 11 11 11 11 11 11 11 11 11 11 11 11 11 10 10 9 9 9 9 9
2 1 3 4 5 3 1 0 3 3 5 6 7 7 7 6 5 5 3 6 7 6 5 6 9 10 10 10 10 11 11 11 11 11 11 11 11 11 10 10 10 10 10 10 9 9 8 8 8
2 0 3 4 3 3 3 1 3 3 4 5 5 6 5 4 4 3 4 8 7 6 5 6 10 10 10 10 10 10 10 10 10 11 11 10 10 10 10 10 9 9 9 9 9 8 8 7 8
2 4 4 5 3 1 4 3 2 3 5 6 6 6 4 3 3 5 8 9 8 6 5 6 10 10 10 10 10 10 10 10 10 10 10 10 9 9 9 9 9 9 8 8 8 7 7 8 8
3 4 5 3 1 1 2 3 4 4 4 5 7 6 4 3 6 8 8 9 8 6 4 6 10 10 10 10 10 10 10 9 9 9 9 9 9 9 9 8 8 8 8 8 7 7 7 8 8
4 4 4 2 2 1 1 2 5 5 5 5 7 6 2 2 6 7 8 7 7 6 5 5 9 10 9 10 10 9 9 9 9 9 9 9 9 9 8 8 7 7 7 7 7 7 7 8 9
4 3 2 2 2 2 2 2 5 4 4 3 5 6 3 2 4 6 7 7 6 6 5 3 4 6 8 9 8 8 9 8 8 9 9 8 8 8 7 7 6 7 6 6 7 7 8 8 9
4 4 3 1 2 1 0 2 4 5 3 4 5 7 5 4 5 6 6 6 5 4 4 4 3 3 3 4 7 8 7 7 7 7 8 7 7 7 6 5 5 5 5 5 6 7 7 7 8
4 5 2 0 2 1 1 3 3 4 5 4 3 4 5 7 6 6 5 4 4 4 3 3 3 3 3 3 5 5 5 5 5 5 6 5 2 2 2 3 4 4 4 4 5 5 6 7 8
5 3 1 1 3 3 2 3 3 4 5 4 5 5 7 7 7 6 5 4 4 5 5 4 4 3 3 3 2 1 2 2 2 2 2 2 1 1 2 2 3 3 3 3 4 4 5 4 3
3 3 2 1 2 3 3 2 2 6 3 3 6 8 7 6 5 5 5 4 4 4 5 5 5 4 3 2 2 1 1 1 1 2 2 2 1 1 1 1 1 1 2 2 3 3 2 2 2
3 1 2 2 2 3 3 2 3 3 3 5 8 9 7 6 5 5 5 4 3 4 5 5 5 4 4 3 2 2 1 1 1 2 3 2 2 1 1 1 0 1 1 2 2 2 3 3 4
2 1 2 3 4 3 4 3 4 2 4 7 8 8 7 6 5 4 4 4 3 3 3 5 5 5 4 3 2 2 2 2 2 2 2 3 2 2 2 1 1 1 1 2 2 3 3 4 4
2 2 1 2 3 3 5 2 3 3 6 7 8 7 6 6 5 4 4 4 4 3 3 4 5 5 4 3 3 2 2 2 2 2 2 2 2 3 3 2 1 1 2 2 2 3 3 3 4
2 2 2 0 2 2 4 1 2 5 7 7 7 7 6 5 5 6 6 5 4 4 3 4 4 4 5 4 3 2 2 2 2 2 2 3 3 3 3 2 2 2 2 3 3 4 3 4 4
2 3 1 3 3 3 4 3 4 5 7 6 6 6 5 5 5 5 5 5 4 3 3 3 3 4 5 4 3 2 2 2 2 2 2 2 3 4 4 3 2 2 2 3 3 3 3 3 3
2 0 2 3 2 3 4 4 5 4 7 6 6 6 5 4 4 4 4 4 4 4 3 2 2 4 4 4 3 3 2 2 2 2 2 2 3 4 4 3 2 3 3 2 3 3 3 3 3
3 2 2 2 2 3 3 5 5 4 6 7 6 5 5 5 5 5 4 4 4 4 3 3 3 3 3 3 3 2 2 1 2 2 2 2 2 4 4 3 3 3 3 3 3 3 3 2 2
2 1 1 3 3 3 5 5 6 5 5 6 5 6 6 6 4 4 4 4 4 4 4 3 3 3 3 3 2 2 2 1 1 1 2 2 3 3 3 3 3 3 3 3 4 3 4 2 2
1 1 1 2 2 2 3 4 5 5 7 8 8 8 7 6 3 3 3 4 5 4 4 3 3 3 4 3 3 2 2 2 1 1 2 2 3 3 3 4 3 3 3 3 3 3 2 1 1
1 3 3 3 2 2 1 4 4 3 3 4 5 6 6 8 7 5 4 4 4 4 5 4 4 4 4 4 3 2 2 2 1 1 1 1 2 3 3 4 3 3 3 3 3 3 4 2 1
2 2 2 2 2 3 1 3 6 4 2 3 4 5 6 6 6 5 5 4 4 5 4 4 4 4 4 5 4 5 3 2 2 2 1 1 2 3 3 4 4 3 2 3 3 3 2 3 2
4 3 1 1 1 1 1 2 6 1 3 5 6 6 6 6 6 6 5 5 4 4 4 4 4 4 4 5 5 5 3 2 1 1 2 1 1 2 3 3 3 3 2 3 3 3 2 2 2
0 4 5 4 4 2 4 3 5 4 7 5 5 6 6 5 6 5 4 3 3 3 3 4 5 4 4 4 4 5 5 4 4 3 2 1 1 1 2 3 3 3 2 3 3 3 3 2 2
4 6 4 5 3 5 3 3 7 6 6 7 7 7 6 5 5 5 4 3 3 3 4 4 5 3 4 4 5 5 5 6 6 5 4 3 2 1 2 3 3 2 3 3 2 2 2 2 2
1 6 5 3 3 5 2 2 6 4 3 3 5 6 5 5 5 5 5 4 4 4 4 5 5 4 4 4 4 4 5 4 3 4 4 4 3 3 3 3 3 3 3 3 3 2 2 2 2
2 2 5 5 1 2 3 3 4 2 1 2 3 4 5 5 5 5 4 4 4 4 4 5 5 4 4 4 3 3 3 4 4 4 4 3 3 3 4 3 3 3 2 3 3 2 2 2 2
4 4 4 3 1 2 3 2 3 3 2 2 2 3 4 4 4 4 4 4 3 4 3 4 4 4 3 3 3 3 3 4 4 4 4 4 4 3 4 3 3 3 2 3 3 2 2 3 2
0 1 3 3 3 4 2 5 4 5 5 4 4 4 4 4 5 4 3 3 3 2 3 3 3 3 2 3 2 2 2 3 3 3 4 4 4 4 4 4 3 3 3 3 3 3 3 3 2
4 4 5 3 3 3 2 6 4 3 3 4 3 3 3 3 3 3 3 2 2 2 2 2 2 2 3 3 2 2 2 3 3 3 3 4 4 4 4 4 3 3 3 3 4 4 3 3 3
Wind_Direction
328 344 70 52 55 54 56 22 113 49 54 54 70 79 80 60 74 125 182 134 130 130 127 122 119 116 113 110 109 108 109 107 104 102 100 99 96 94 93 91 89 89 89 88 85 81 78 75 71
345 350 58 54 75 78 50 20 80 79 132 118 78 74 75 70 79 112 126 135 131 128 127 124 123 120 116 111 109 110 111 108 106 105 104 102 100 99 97 93 91 90 88 86 83 82 80 75 69
328 55 74 62 79 132 148 177 112 71 98 98 80 55 68 88 103 124 142 139 125 120 123 128 126 123 119 114 112 114 113 111 110 109 107 105 103 103 101 98 94 92 90 87 82 79 79 74 69
48 43 55 65 71 172 156 171 133 90 64 65 94 69 57 63 120 134 134 131 122 120 122 131 127 125 122 119 116 116 116 114 114 112 110 108 106 104 102 100 96 92 89 87 84 78 74 74 73
71 71 61 59 56 42 114 120 109 90 77 77 90 88 59 24 99 122 131 130 127 126 127 131 128 126 125 124 123 122 121 119 119 117 114 110 106 105 104 101 96 94 92 88 85 79 77 77 74
57 65 81 85 90 95 53 103 93 90 98 96 95 100 92 103 111 128 132 134 135 137 135 131 132 129 128 128 129 128 125 124 123 121 118 115 112 110 107 103 99 97 96 91 84 81 82 77 75
94 80 95 132 126 105 124 113 100 100 101 106 111 104 123 137 141 138 132 133 137 138 134 130 132 132 134 133 134 132 130 129 128 127 124 121 120 117 114 111 107 104 100 91 82 80 78 74 75
120 92 51 61 111 118 154 100 115 110 105 106 105 129 161 183 155 130 123 126 134 135 138 140 135 132 130 137 143 142 139 136 136 135 130 125 123 123 126 125 123 116 106 95 85 79 75 72 72
83 74 63 112 143 159 95 85 59 75 90 66 67 128 153 148 132 120 116 119 140 150 159 156 153 151 149 154 155 148 150 148 148 145 141 127 109 117 134 149 144 128 112 101 92 79 70 65 66
84 104 197 178 160 146 112 107 117 84 75 68 68 85 118 130 131 135 143 157 163 168 178 178 173 174 173 166 141 144 155 151 148 152 149 129 132 152 152 158 156 133 99 89 88 73 62 55 57
121 156 176 111 139 125 109 85 82 113 103 153 147 141 140 135 139 150 161 174 181 176 171 178 178 177 174 161 152 156 143 152 166 172 159 146 136 129 116 91 68 54 70 58 49 47 54 61 68
113 146 136 143 126 116 120 104 70 98 171 167 152 149 149 147 156 164 167 172 168 162 178 174 169 173 175 162 158 156 151 157 174 168 154 155 148 139 137 123 92 71 75 76 61 65 62 69 78
114 151 142 137 121 127 105 102 108 123 140 138 141 147 155 158 168 170 166 163 158 162 168 170 169 173 171 160 167 155 164 172 173 156 159 157 147 149 144 127 103 94 92 98 94 86 78 72 79
164 144 131 131 131 133 121 122 111 170 146 143 151 163 170 169 170 164 165 166 171 174 173 170 167 174 165 160 167 164 168 163 148 144 146 144 141 138 127 114 98 95 108 112 106 101 91 82 80
115 88 19 206 157 164 118 56 196 184 151 154 167 172 175 178 172 174 179 176 175 178 175 175 170 166 165 163 168 159 154 140 128 132 126 123 121 128 125 120 112 110 110 102 92 86 82 85 79
59 69 314 266 184 179 128 229 240 185 157 168 178 179 181 188 186 186 180 173 173 168 176 184 166 154 158 156 152 144 137 132 129 123 111 116 123 122 118 118 119 116 107 101 98 93 85 77 77
22 169 228 270 216 166 152 220 238 194 170 179 185 186 187 193 191 190 179 172 171 165 165 158 135 144 153 149 139 136 127 128 132 119 110 106 111 118 118 120 121 116 105 102 110 98 103 97 84
230 220 221 225 238 164 177 225 238 212 183 184 187 191 189 192 201 192 177 171 164 156 150 138 127 132 134 125 110 101 96 107 115 114 117 125 117 118 120 122 120 117 108 95 98 101 91 100 102
207 192 220 239 226 176 203 224 237 223 197 194 195 191 192 202 204 177 168 159 153 151 146 146 138 141 136 132 139 135 137 136 118 139 144 147 131 125 123 124 117 116 118 124 122 113 97 89 101
210 217 245 278 263 180 216 246 242 211 201 197 191 192 192 189 187 182 169 162 164 168 165 158 154 155 157 158 162 159 149 144 140 129 116 137 137 139 134 129 131 127 115 112 118 120 112 118 122
246 200 207 225 326 5 76 311 278 256 210 197 194 183 180 180 184 186 177 181 176 178 179 173 169 163 166 155 127 104 80 67 62 65 95 121 141 137 134 134 133 133 134 142 147 144 142 153 187
268 256 195 145 75 290 158 266 274 242 233 218 208 187 186 184 180 182 179 186 188 192 187 177 170 167 164 153 143 146 151 163 190 179 166 136 131 133 142 144 145 140 140 149 164 158 154 146 171
227 261 283 195 135 314 270 194 283 240 227 234 212 194 186 180 175 181 187 187 189 186 182 179 165 163 165 164 162 158 160 175 161 139 140 136 125 141 148 148 146 149 159 168 166 150 150 152 165
265 26 20 46 71 307 239 175 273 231 212 210 204 194 187 176 170 176 184 175 180 170 162 158 155 169 175 170 164 168 173 171 155 154 162 169 159 156 164 155 150 160 167 175 174 161 157 153 151
59 68 26 4 7 261 252 164 245 242 212 189 185 188 185 170 165 169 172 178 183 172 168 161 156 168 176 173 176 179 180 175 174 172 174 174 175 185 195 164 165 171 180 185 171 153 150 149 143
180 132 150 196 239 286 319 223 259 253 210 168 160 161 159 161 166 175 182 182 185 182 173 166 167 172 173 177 188 188 179 176 184 182 176 180 186 190 183 174 181 184 182 179 160 148 158 148 146
152 184 176 150 254 289 297 305 322 355 42 113 130 138 162 173 173 170 170 169 170 168 171 170 170 175 181 185 184 191 185 181 187 185 177 179 183 178 173 171 175 180 178 169 156 149 157 141 144
164 158 91 104 157 282 300 273 245 245 237 210 176 177 181 177 172 172 171 173 176 173 164 159 162 174 183 183 187 192 191 184 182 175 179 183 185 175 166 171 173 166 165 160 154 149 151 137 146
107 101 114 132 163 161 262 276 243 205 201 192 198 195 185 176 174 174 172 173 168 163 161 162 167 171 177 181 183 184 189 178 165 175 188 187 184 175 172 173 168 164 165 157 154 163 158 150 142
168 173 147 157 232 177 183 269 285 201 196 179 184 199 187 174 169 162 155 140 136 152 168 167 173 177 183 177 163 169 175 163 164 176 189 183 181 179 179 175 169 172 173 166 163 176 170 162 160